EW9366 Weather Reports


Display with metric or nautical units.
time (UTC)temp
F
wind
direction
speed
MPH
gust
MPH
rain 1hr
in
rain 24hr
in
rain mn
in
humidity
%
barometer
mb
20260502130122 53 214 1.0 5.0 0.00 0.00 0.00 76 1019.8
20260502123036 51 256 1.0 4.0 0.00 0.00 0.00 79 1019.5
20260502123031 51 262 2.0 4.0 0.00 0.00 0.00 78 1019.4
20260502122006 51 240 2.0 4.0 0.00 0.00 0.00 78 1019.4
20260502121507 51 260 1.0 4.0 0.00 0.00 0.00 79 1019.4
20260502120950 51 294 1.0 3.0 0.00 0.00 0.00 80 1019.4
20260502120931 50 250 1.0 3.0 0.00 0.00 0.00 80 1019.3
20260502115925 50 262 1.0 3.0 0.00 0.00 0.00 80 1019.3
20260502115422 49 254 1.0 2.0 0.00 0.00 0.00 81 1019.3
20260502114855 49 264 1.0 3.0 0.00 0.00 0.00 81 1019.2
20260502114352 49 257 2.0 3.0 0.00 0.00 0.00 82 1019.2
20260502114309 48 254 2.0 6.0 0.00 0.00 0.00 82 1019.0
20260502113742 48 278 2.0 6.0 0.00 0.00 0.00 82 1019.0
20260502112752 48 288 1.0 3.0 0.00 0.00 0.00 83 1019.0
20260502112250 47 265 0.0 2.0 0.00 0.00 0.00 84 1019.0
20260502111721 47 246 0.0 1.0 0.00 0.00 0.00 85 1018.9
20260502111218 47 255 0.0 1.0 0.00 0.00 0.00 85 1018.8
20260502110653 47 256 0.0 1.0 0.00 0.00 0.00 86 1018.8
20260502110127 46 248 0.0 1.0 0.00 0.00 0.00 88 1018.8
20260502105622 46 248 0.0 1.0 0.00 0.00 0.00 89 1018.8
20260502105058 45 252 0.0 1.0 0.00 0.00 0.00 90 1018.7
20260502104553 45 252 0.0 1.0 0.00 0.00 0.00 91 1018.8
20260502104052 45 252 0.0 1.0 0.00 0.00 0.00 92 1018.7
20260502103541 44 252 0.0 0.0 0.00 0.00 0.00 92 1018.7
20260502103038 44 252 0.0 0.0 0.00 0.00 0.00 92 1018.6
20260502102514 44 252 0.0 0.0 0.00 0.00 0.00 93 1018.6
20260502101945 44 252 0.0 1.0 0.00 0.00 0.00 93 1018.6
20260502101441 44 252 0.0 2.0 0.00 0.00 0.00 93 1018.6
20260502100919 44 252 0.0 2.0 0.00 0.00 0.00 93 1018.6
20260502100904 43 89 0.0 0.0 0.00 0.00 0.00 93 1018.6
20260502100347 43 89 0.0 0.0 0.00 0.00 0.00 92 1018.5
20260502091217 44 89 0.0 0.0 0.00 0.00 0.00 92 1018.2
20260502090206 44 89 0.0 0.0 0.00 0.00 0.00 92 1018.1
20260502071128 42 89 0.0 0.0 0.00 0.00 0.00 89 1018.2
20260502070626 42 89 0.0 0.0 0.00 0.00 0.00 90 1018.2
20260502070058 42 89 0.0 0.0 0.00 0.00 0.00 89 1018.2
20260502065554 42 89 0.0 0.0 0.00 0.00 0.00 89 1018.1
20260502065051 42 89 0.0 0.0 0.00 0.00 0.00 89 1018.0
20260502064541 42 89 0.0 0.0 0.00 0.00 0.00 89 1018.1
20260502064017 42 89 0.0 0.0 0.00 0.00 0.00 89 1018.1
20260502063446 42 89 0.0 0.0 0.00 0.00 0.00 89 1018.0
20260502062942 42 89 0.0 0.0 0.00 0.00 0.00 88 1018.0
20260502062439 42 89 0.0 0.0 0.00 0.00 0.00 87 1018.0
20260502061936 42 89 0.0 0.0 0.00 0.00 0.00 86 1018.0
20260502061432 43 89 0.0 0.0 0.00 0.00 0.00 86 1018.1
20260502061427 43 89 0.0 0.0 0.00 0.00 0.00 87 1018.0
20260502060403 43 89 0.0 0.0 0.00 0.00 0.00 86 1018.1
20260502055900 44 89 0.0 0.0 0.00 0.00 0.00 86 1018.2
20260502055825 44 89 0.0 0.0 0.00 0.00 0.00 86 1018.2
20260502054806 44 89 0.0 0.0 0.00 0.00 0.00 85 1018.0
20260502054300 44 89 0.0 0.0 0.00 0.00 0.00 85 1018.0
20260502053757 44 89 0.0 0.0 0.00 0.00 0.00 85 1018.1
20260502053232 44 89 0.0 0.0 0.00 0.00 0.00 84 1018.1
20260502053144 44 89 0.0 0.0 0.00 0.00 0.00 83 1018.0
20260502052638 44 89 0.0 0.0 0.00 0.00 0.00 82 1018.0
20260502051658 45 89 0.0 0.0 0.00 0.00 0.00 82 1018.2
20260502051152 45 89 0.0 0.0 0.00 0.00 0.00 82 1018.2
20260502050649 45 89 0.0 0.0 0.00 0.00 0.00 81 1018.3
20260502050147 45 89 0.0 0.0 0.00 0.00 0.00 82 1018.2
20260502045644 45 89 0.0 0.0 0.00 0.00 0.00 82 1018.2
20260502045117 46 89 0.0 0.0 0.00 0.00 0.00 81 1018.1
20260502044551 46 89 0.0 0.0 0.00 0.00 0.00 80 1018.2
20260502044516 46 89 0.0 0.0 0.00 0.00 0.00 80 1018.2
20260502043943 46 89 0.0 0.0 0.00 0.00 0.00 80 1018.2
20260502042932 46 89 0.0 0.0 0.00 0.00 0.00 78 1018.2
20260502042405 46 89 0.0 0.0 0.00 0.00 0.00 78 1018.1
20260502042318 47 89 0.0 0.0 0.00 0.00 0.00 78 1018.0
20260502041315 47 89 0.0 0.0 0.00 0.00 0.00 76 1018.2
20260502040745 47 89 0.0 0.0 0.00 0.00 0.00 76 1018.2
20260502040705 47 89 0.0 0.0 0.00 0.00 0.00 73 1018.1
20260502035650 47 89 0.0 0.0 0.00 0.00 0.00 73 1018.2
20260502035148 48 89 0.0 0.0 0.00 0.00 0.00 71 1018.3
20260502034638 48 89 0.0 0.0 0.00 0.00 0.00 71 1018.3
20260502034113 49 89 0.0 0.0 0.00 0.00 0.00 71 1018.2
20260502033544 49 89 0.0 0.0 0.00 0.00 0.00 71 1018.3
20260502033524 49 89 0.0 0.0 0.00 0.00 0.00 71 1018.2
20260502032516 49 89 0.0 0.0 0.00 0.00 0.00 70 1018.3
20260502032013 49 89 0.0 0.0 0.00 0.00 0.00 70 1018.2
20260502031511 50 89 0.0 0.0 0.00 0.00 0.00 68 1018.3
20260502030951 50 89 0.0 0.0 0.00 0.00 0.00 71 1018.1
20260502030450 50 89 0.0 0.0 0.00 0.00 0.00 68 1018.1
20260502025947 50 89 0.0 0.0 0.00 0.00 0.00 66 1018.1
20260502025936 50 89 0.0 0.0 0.00 0.00 0.00 65 1018.2
20260502024945 51 89 0.0 0.0 0.00 0.00 0.00 65 1018.2
20260502024445 51 89 0.0 0.0 0.00 0.00 0.00 65 1018.1
20260502023942 51 89 0.0 0.0 0.00 0.00 0.00 65 1018.1
20260502023415 51 89 0.0 0.0 0.00 0.00 0.00 65 1018.1
20260502022916 51 89 0.0 0.0 0.00 0.00 0.00 62 1018.0
20260502022242 52 87 0.0 0.0 0.00 0.00 0.00 61 1018.0
20260502021730 52 87 0.0 0.0 0.00 0.00 0.00 62 1017.9
20260502021231 52 87 0.0 0.0 0.00 0.00 0.00 59 1017.9
20260502020705 53 87 0.0 0.0 0.00 0.00 0.00 57 1017.9
20260502020201 53 87 0.0 0.0 0.00 0.00 0.00 56 1017.9
20260502015636 54 87 0.0 0.0 0.00 0.00 0.00 53 1017.8
20260502015558 54 87 0.0 0.0 0.00 0.00 0.00 52 1017.8
20260502014605 55 87 0.0 0.0 0.00 0.00 0.00 52 1017.7
20260502014037 56 87 0.0 0.0 0.00 0.00 0.00 50 1017.7
20260502014028 56 87 0.0 0.0 0.00 0.00 0.00 50 1017.6
20260502013034 57 87 0.0 0.0 0.00 0.00 0.00 50 1017.5
20260502012522 57 87 0.0 0.0 0.00 0.00 0.00 49 1017.5
20260502012020 58 87 0.0 0.0 0.00 0.00 0.00 48 1017.5
20260502011515 58 87 0.0 1.0 0.00 0.00 0.00 47 1017.3
20260502010959 59 87 0.0 1.0 0.00 0.00 0.00 46 1017.3
20260502010931 59 91 0.0 1.0 0.00 0.00 0.00 46 1017.3
20260502005949 59 91 0.0 1.0 0.00 0.00 0.00 45 1017.3
20260502005935 60 90 0.0 1.0 0.00 0.00 0.00 44 1017.1
20260502004922 60 89 0.0 3.0 0.00 0.00 0.00 44 1016.9
20260502004355 61 62 1.0 4.0 0.00 0.00 0.00 42 1016.8
20260502003830 62 20 0.0 4.0 0.00 0.00 0.00 42 1016.7
20260502003815 62 208 0.0 2.0 0.00 0.00 0.00 42 1016.7
20260502002821 62 114 1.0 4.0 0.00 0.00 0.00 41 1016.6
20260502002257 62 142 1.0 4.0 0.00 0.00 0.00 40 1016.5
20260502001755 63 102 1.0 3.0 0.00 0.00 0.00 41 1016.4
20260502001256 62 114 2.0 5.0 0.00 0.00 0.00 41 1016.4
20260502000754 62 140 2.0 10.0 0.00 0.00 0.00 40 1016.2
20260502000233 62 105 3.0 10.0 0.00 0.00 0.00 41 1016.1
20260501235732 62 86 4.0 10.0 0.00 0.00 0.00 40 1016.1
20260501235228 62 252 4.0 10.0 0.00 0.00 0.00 40 1016.0
20260501234724 62 56 3.0 10.0 0.00 0.00 0.00 40 1016.0
20260501234219 62 70 3.0 9.0 0.00 0.00 0.00 40 1016.1
20260501233716 62 60 3.0 8.0 0.00 0.00 0.00 40 1016.1
20260501233150 63 151 3.0 10.0 0.00 0.00 0.00 39 1016.1
20260501232624 63 115 3.0 11.0 0.00 0.00 0.00 38 1016.2
20260501232058 63 28 2.0 11.0 0.00 0.00 0.00 38 1016.2
20260501232026 64 176 3.0 10.0 0.00 0.00 0.00 38 1016.2
20260501231440 64 148 3.0 10.0 0.00 0.00 0.00 37 1016.2
20260501230458 64 199 3.0 11.0 0.00 0.00 0.00 37 1016.2
20260501230423 64 142 3.0 11.0 0.00 0.00 0.00 37 1016.1
20260501225909 64 4 4.0 9.0 0.00 0.00 0.00 37 1016.1
20260501224900 64 243 4.0 12.0 0.00 0.00 0.00 37 1016.1
20260501224353 64 53 5.0 12.0 0.00 0.00 0.00 37 1016.0
20260501223824 65 97 4.0 12.0 0.00 0.00 0.00 35 1016.0
20260501223321 66 193 3.0 12.0 0.00 0.00 0.00 34 1015.9
20260501222754 66 84 3.0 6.0 0.00 0.00 0.00 35 1015.8
20260501222226 66 175 2.0 7.0 0.00 0.00 0.00 37 1015.8
20260501221724 66 260 3.0 8.0 0.00 0.00 0.00 36 1015.8
20260501221158 66 224 4.0 14.0 0.00 0.00 0.00 37 1015.8
20260501220651 66 63 3.0 14.0 0.00 0.00 0.00 36 1015.7
20260501220147 66 167 4.0 13.0 0.00 0.00 0.00 36 1015.6
20260501215645 66 110 4.0 13.0 0.00 0.00 0.00 35 1015.6
20260501215142 66 240 4.0 14.0 0.00 0.00 0.00 36 1015.6
20260501214614 66 174 3.0 14.0 0.00 0.00 0.00 35 1015.4
20260501214110 66 188 3.0 10.0 0.00 0.00 0.00 36 1015.4
20260501214056 66 219 3.0 12.0 0.00 0.00 0.00 36 1015.4
20260501213103 66 104 4.0 12.0 0.00 0.00 0.00 34 1015.4
20260501212535 66 118 4.0 10.0 0.00 0.00 0.00 36 1015.4
20260501212012 66 104 3.0 10.0 0.00 0.00 0.00 36 1015.4
20260501211506 66 124 3.0 10.0 0.00 0.00 0.00 34 1015.5
20260501211447 67 199 3.0 9.0 0.00 0.00 0.00 37 1015.5
20260501210913 67 136 2.0 9.0 0.00 0.00 0.00 37 1015.5
20260501205907 67 230 2.0 7.0 0.00 0.00 0.00 37 1015.7
20260501205341 67 142 3.0 7.0 0.00 0.00 0.00 37 1015.8
20260501204840 67 236 3.0 11.0 0.00 0.00 0.00 34 1015.9
20260501204312 67 226 3.0 11.0 0.00 0.00 0.00 35 1016.2
20260501204300 67 52 3.0 10.0 0.00 0.00 0.00 36 1016.4
20260501203242 67 168 3.0 10.0 0.00 0.00 0.00 34 1016.5
20260501202740 67 233 4.0 11.0 0.00 0.00 0.00 36 1016.6
20260501202213 67 246 4.0 11.0 0.00 0.00 0.00 37 1016.7
20260501201710 67 255 3.0 9.0 0.00 0.00 0.00 38 1016.9
20260501201207 67 251 3.0 9.0 0.00 0.00 0.00 34 1016.9
20260501200642 67 240 3.0 7.0 0.00 0.00 0.00 34 1017.1
20260501200116 67 165 3.0 8.0 0.00 0.00 0.00 39 1017.4
20260501195547 66 54 4.0 10.0 0.00 0.00 0.00 34 1017.5
20260501195035 66 250 5.0 15.0 0.00 0.00 0.00 33 1017.6
20260501194537 66 255 4.0 15.0 0.00 0.00 0.00 35 1017.6
20260501194010 67 296 2.0 7.0 0.00 0.00 0.00 35 1017.7
20260501193507 67 81 1.0 7.0 0.00 0.00 0.00 33 1017.8
20260501192938 67 129 2.0 6.0 0.00 0.00 0.00 39 1018.0
20260501192411 67 114 3.0 8.0 0.00 0.00 0.00 37 1018.0
20260501191843 67 37 3.0 7.0 0.00 0.00 0.00 35 1018.1
20260501191340 67 117 2.0 7.0 0.00 0.00 0.00 35 1018.1
20260501190838 68 215 2.0 7.0 0.00 0.00 0.00 35 1018.2
20260501190310 68 58 2.0 7.0 0.00 0.00 0.00 34 1018.4
20260501190248 68 37 1.0 5.0 0.00 0.00 0.00 39 1018.3
20260501185252 67 79 1.0 8.0 0.00 0.00 0.00 36 1018.2
20260501184748 66 245 2.0 8.0 0.00 0.00 0.00 41 1018.3
20260501184250 66 119 3.0 9.0 0.00 0.00 0.00 38 1018.3
20260501184236 67 262 3.0 9.0 0.00 0.00 0.00 38 1018.4
20260501183222 67 52 2.0 9.0 0.00 0.00 0.00 37 1018.5
20260501182719 67 273 2.0 5.0 0.00 0.00 0.00 41 1018.6
20260501182645 66 259 3.0 8.0 0.00 0.00 0.00 36 1018.4
20260501182109 66 281 2.0 8.0 0.00 0.00 0.00 35 1018.6
20260501181101 66 219 2.0 6.0 0.00 0.00 0.00 39 1018.6
20260501180557 66 49 3.0 11.0 0.00 0.00 0.00 44 1018.7
20260501180511 66 248 2.0 11.0 0.00 0.00 0.00 40 1018.8
20260501175527 66 222 2.0 4.0 0.00 0.00 0.00 47 1018.8
20260501175000 66 143 2.0 6.0 0.00 0.00 0.00 45 1018.8
20260501174943 65 259 2.0 7.0 0.00 0.00 0.00 46 1018.8
20260501173931 65 245 2.0 9.0 0.00 0.00 0.00 46 1018.9
20260501173427 65 120 3.0 9.0 0.00 0.00 0.00 50 1018.9
20260501172900 65 54 3.0 7.0 0.00 0.00 0.00 48 1018.9
20260501172358 65 114 2.0 7.0 0.00 0.00 0.00 50 1018.9
20260501171830 66 230 2.0 6.0 0.00 0.00 0.00 50 1019.1
20260501171820 65 316 2.0 7.0 0.00 0.00 0.00 52 1019.0
20260501171246 65 200 2.0 8.0 0.00 0.00 0.00 54 1019.0
20260501170305 65 56 1.0 8.0 0.00 0.00 0.00 53 1019.0
20260501165802 64 42 1.0 4.0 0.00 0.00 0.00 57 1019.0
20260501165300 63 196 3.0 8.0 0.00 0.00 0.00 57 1018.9
20260501165245 62 89 3.0 8.0 0.00 0.00 0.00 56 1018.9
20260501164254 62 284 3.0 9.0 0.00 0.00 0.00 57 1018.9
20260501163728 62 49 2.0 9.0 0.00 0.00 0.00 56 1019.1
20260501163226 62 93 3.0 7.0 0.00 0.00 0.00 61 1019.0
20260501163216 61 14 3.0 7.0 0.00 0.00 0.00 56 1019.0
20260501162202 61 55 2.0 7.0 0.00 0.00 0.00 58 1019.0
20260501162140 61 67 2.0 7.0 0.00 0.00 0.00 58 1019.0
20260501161133 60 47 2.0 5.0 0.00 0.00 0.00 59 1019.1
20260501160609 60 46 2.0 6.0 0.00 0.00 0.00 59 1019.1
20260501160041 59 23 2.0 6.0 0.00 0.00 0.00 61 1019.1
20260501155536 59 122 3.0 8.0 0.00 0.00 0.00 59 1019.1
20260501155511 59 94 4.0 8.0 0.00 0.00 0.00 61 1019.1
20260501154753 59 51 3.0 7.0 0.00 0.00 0.00 59 1019.0
20260501154025 59 56 2.0 6.0 0.00 0.00 0.00 59 1018.9
20260501153520 59 105 3.0 6.0 0.00 0.00 0.00 62 1019.0
20260501153018 58 31 4.0 8.0 0.00 0.00 0.00 59 1019.1
20260501152451 58 84 3.0 9.0 0.00 0.00 0.00 60 1019.0
20260501151934 58 72 3.0 7.0 0.00 0.00 0.00 61 1018.9
20260501151430 58 39 4.0 9.0 0.00 0.00 0.00 62 1018.9
20260501150928 58 60 4.0 8.0 0.00 0.00 0.00 62 1018.8
20260501150400 57 108 4.0 7.0 0.00 0.00 0.00 64 1018.7
20260501145857 57 105 4.0 7.0 0.00 0.00 0.00 64 1018.7
20260501145823 57 73 4.0 8.0 0.00 0.00 0.00 66 1018.7
20260501144828 56 77 4.0 8.0 0.00 0.00 0.00 66 1018.6
20260501144326 56 119 4.0 8.0 0.00 0.00 0.00 68 1018.5
20260501143823 56 66 4.0 8.0 0.00 0.00 0.00 69 1018.5
20260501143319 55 105 4.0 8.0 0.00 0.00 0.00 68 1018.3
20260501142800 56 15 3.0 6.0 0.00 0.00 0.00 69 1018.3
20260501142257 56 53 2.0 6.0 0.00 0.00 0.00 70 1018.3
20260501141737 56 17 2.0 5.0 0.00 0.00 0.00 70 1018.4